Location: Newark
(51.7378°N, 19.8125°E)
Time: 12:59:13
(UTC+00:00)

Envisat - Pass Details

Date: 09 December 2019
Orbit: 764 x 766 km, 98.1° (Epoch: 18 January)

Event Time Altitude Azimuth Distance (km) Brightness Sun altitude
Rises 05:14:10 0° 17° (NNE) 3,247 6.2 -11.6°
Reaches altitude 10° 05:16:34 10° 23° (NNE) 2,316 5.5 -11.3°
Maximum altitude 05:21:32 51° 99° (E) 957 4.0 -10.6°
Drops below altitude 10° 05:26:28 10° 176° (S) 2,298 5.9 -9.9°
Sets 05:28:50 0° 181° (S) 3,219 6.6 -9.6°
